QPF
0.02 0.01 0.01 0.01 0.02 0.04 0.04 0.05 0.05 0.07 0.10 0.09 0.05 0.04 0.05 0.06 0.06 0.05 0.04 0.04 0.03 0.02 0.01 0.01 0.01 0.02 0.02 0.01 0.02 0.04 0.05 0.05 0.06 0.04 0.03 0.03 0.02 0.02 0.02 0.03 0.03 0.04 0.04
0.03 0.03 0.02 0.02 0.02 0.03 0.04 0.03 0.05 0.06 0.07 0.07 0.06 0.06 0.06 0.05 0.03 0.03 0.04 0.04 0.03 0.02 0.01 0.01 0.01 0.01 0.01 0.02 0.02 0.03 0.04 0.04 0.05 0.04 0.04 0.03 0.01 0.01 0.01 0.02 0.02 0.03 0.04
0.04 0.04 0.02 0.01 0.01 0.03 0.04 0.03 0.04 0.05 0.07 0.06 0.06 0.05 0.05 0.04 0.04 0.02 0.03 0.04 0.04 0.03 0.02 0.01 0.01 0.00 0.01 0.01 0.02 0.02 0.02 0.03 0.03 0.04 0.04 0.03 0.02 0.01 0.01 0.01 0.01 0.02 0.02
0.03 0.04 0.02 0.02 0.02 0.04 0.06 0.04 0.04 0.05 0.07 0.07 0.07 0.05 0.04 0.04 0.05 0.03 0.03 0.03 0.04 0.04 0.03 0.02 0.01 0.01 0.01 0.01 0.01 0.02 0.01 0.01 0.02 0.02 0.03 0.02 0.02 0.03 0.02 0.02 0.01 0.01 0.01
0.02 0.02 0.02 0.03 0.03 0.05 0.06 0.05 0.04 0.05 0.06 0.06 0.06 0.05 0.04 0.04 0.06 0.06 0.03 0.03 0.04 0.04 0.03 0.02 0.01 0.01 0.01 0.01 0.01 0.01 0.01 0.01 0.02 0.02 0.02 0.02 0.02 0.02 0.02 0.02 0.02 0.01 0.02
0.01 0.03 0.03 0.04 0.04 0.05 0.06 0.04 0.04 0.05 0.05 0.05 0.05 0.05 0.04 0.04 0.05 0.06 0.04 0.02 0.03 0.04 0.03 0.02 0.01 0.01 0.01 0.01 0.01 0.01 0.01 0.01 0.02 0.02 0.02 0.02 0.02 0.01 0.02 0.03 0.02 0.02 0.02
0.02 0.03 0.03 0.03 0.03 0.04 0.04 0.03 0.03 0.05 0.06 0.05 0.04 0.04 0.03 0.03 0.03 0.04 0.04 0.02 0.02 0.03 0.02 0.01 0.01 0.01 0.01 0.01 0.01 0.01 0.01 0.01 0.01 0.01 0.02 0.02 0.02 0.01 0.02 0.03 0.03 0.02 0.02
0.01 0.02 0.03 0.04 0.04 0.04 0.04 0.03 0.04 0.05 0.07 0.06 0.04 0.04 0.04 0.03 0.03 0.04 0.04 0.02 0.01 0.02 0.02 0.01 0.01 0.01 0.02 0.02 0.01 0.01 0.01 0.01 0.01 0.01 0.01 0.01 0.01 0.02 0.02 0.02 0.03 0.04 0.03
0.01 0.02 0.03 0.03 0.04 0.03 0.04 0.04 0.04 0.04 0.05 0.05 0.05 0.05 0.05 0.04 0.03 0.03 0.04 0.03 0.03 0.02 0.02 0.01 0.01 0.02 0.03 0.03 0.03 0.02 0.02 0.02 0.02 0.01 0.01 0.01 0.02 0.02 0.03 0.04 0.04 0.05 0.04
0.01 0.02 0.03 0.03 0.03 0.03 0.05 0.05 0.04 0.04 0.03 0.04 0.04 0.04 0.05 0.04 0.03 0.03 0.03 0.03 0.04 0.04 0.03 0.03 0.02 0.03 0.03 0.04 0.04 0.04 0.04 0.03 0.02 0.02 0.02 0.02 0.02 0.03 0.05 0.05 0.06 0.06 0.05
0.02 0.03 0.03 0.03 0.03 0.04 0.04 0.04 0.04 0.03 0.03 0.04 0.04 0.03 0.03 0.03 0.03 0.03 0.02 0.03 0.03 0.04 0.04 0.04 0.04 0.05 0.06 0.05 0.04 0.04 0.04 0.03 0.02 0.02 0.02 0.02 0.02 0.02 0.04 0.04 0.05 0.06 0.05
0.02 0.03 0.03 0.03 0.03 0.03 0.03 0.03 0.02 0.02 0.02 0.03 0.04 0.03 0.03 0.04 0.03 0.02 0.02 0.03 0.04 0.05 0.05 0.06 0.07 0.08 0.08 0.07 0.07 0.06 0.04 0.03 0.03 0.03 0.03 0.03 0.03 0.03 0.03 0.04 0.05 0.06 0.06
0.02 0.02 0.03 0.02 0.03 0.03 0.02 0.02 0.02 0.02 0.02 0.02 0.02 0.03 0.03 0.04 0.03 0.02 0.02 0.02 0.03 0.03 0.04 0.05 0.05 0.06 0.06 0.06 0.05 0.04 0.03 0.03 0.03 0.04 0.04 0.03 0.04 0.03 0.04 0.04 0.03 0.03 0.03
0.02 0.02 0.02 0.02 0.02 0.02 0.01 0.01 0.02 0.01 0.01 0.02 0.01 0.02 0.02 0.02 0.02 0.02 0.02 0.02 0.03 0.02 0.03 0.04 0.04 0.04 0.04 0.05 0.05 0.04 0.03 0.03 0.02 0.04 0.03 0.02 0.02 0.02 0.02 0.02 0.01 0.02 0.02
0.02 0.02 0.02 0.02 0.02 0.02 0.02 0.02 0.02 0.01 0.02 0.03 0.04 0.03 0.02 0.02 0.02 0.03 0.03 0.02 0.02 0.02 0.03 0.02 0.02 0.01 0.01 0.02 0.03 0.02 0.02 0.02 0.02 0.02 0.02 0.02 0.02 0.02 0.02 0.02 0.01 0.01 0.02
0.03 0.03 0.03 0.03 0.03 0.03 0.03 0.03 0.02 0.01 0.03 0.05 0.08 0.06 0.02 0.02 0.02 0.02 0.02 0.02 0.02 0.02 0.02 0.02 0.02 0.01 0.01 0.01 0.02 0.01 0.01 0.02 0.02 0.02 0.02 0.03 0.03 0.02 0.02 0.02 0.03 0.02 0.01
0.04 0.04 0.04 0.04 0.03 0.02 0.03 0.03 0.02 0.01 0.01 0.03 0.05 0.06 0.04 0.02 0.02 0.02 0.01 0.01 0.01 0.02 0.02 0.01 0.01 0.01 0.01 0.01 0.01 0.01 0.01 0.01 0.01 0.01 0.02 0.02 0.02 0.02 0.02 0.02 0.02 0.02 0.02
0.06 0.04 0.03 0.03 0.04 0.03 0.03 0.03 0.02 0.01 0.01 0.02 0.03 0.04 0.04 0.03 0.03 0.03 0.02 0.02 0.01 0.01 0.02 0.02 0.01 0.01 0.01 0.01 0.01 0.02 0.01 0.01 0.01 0.01 0.01 0.01 0.01 0.02 0.02 0.02 0.02 0.02 0.02
0.05 0.04 0.03 0.03 0.03 0.03 0.02 0.02 0.02 0.02 0.01 0.02 0.02 0.04 0.04 0.04 0.04 0.03 0.02 0.02 0.02 0.02 0.01 0.02 0.02 0.02 0.02 0.02 0.02 0.02 0.01 0.01 0.02 0.02 0.01 0.02 0.02 0.02 0.02 0.02 0.03 0.02 0.02
0.05 0.06 0.04 0.03 0.03 0.03 0.04 0.05 0.06 0.04 0.03 0.03 0.03 0.05 0.05 0.06 0.06 0.05 0.05 0.04 0.03 0.03 0.02 0.01 0.01 0.01 0.02 0.02 0.02 0.02 0.01 0.01 0.02 0.02 0.02 0.02 0.02 0.03 0.03 0.02 0.02 0.02 0.02
0.03 0.05 0.06 0.05 0.04 0.04 0.05 0.09 0.11 0.10 0.07 0.05 0.05 0.04 0.05 0.05 0.06 0.06 0.06 0.05 0.04 0.03 0.02 0.01 0.01 0.01 0.01 0.01 0.01 0.01 0.01 0.01 0.01 0.02 0.02 0.02 0.03 0.03 0.04 0.03 0.02 0.02 0.02
0.03 0.02 0.03 0.05 0.05 0.04 0.04 0.06 0.09 0.11 0.11 0.08 0.07 0.06 0.06 0.05 0.06 0.05 0.05 0.05 0.05 0.03 0.02 0.02 0.01 0.01 0.01 0.01 0.01 0.02 0.01 0.01 0.01 0.01 0.01 0.02 0.03 0.03 0.04 0.03 0.03 0.03 0.03
0.03 0.03 0.03 0.03 0.04 0.04 0.04 0.04 0.04 0.05 0.07 0.09 0.08 0.07 0.06 0.07 0.06 0.04 0.03 0.04 0.04 0.04 0.04 0.03 0.02 0.01 0.01 0.01 0.02 0.02 0.02 0.02 0.02 0.01 0.02 0.02 0.02 0.03 0.03 0.04 0.04 0.04 0.03
0.02 0.02 0.03 0.02 0.02 0.02 0.02 0.03 0.03 0.02 0.03 0.05 0.07 0.07 0.08 0.07 0.07 0.06 0.04 0.03 0.03 0.04 0.04 0.03 0.03 0.02 0.01 0.02 0.02 0.02 0.02 0.02 0.02 0.02 0.01 0.01 0.01 0.02 0.03 0.04 0.04 0.03 0.03
0.02 0.03 0.02 0.01 0.01 0.00 0.00 0.01 0.01 0.01 0.02 0.03 0.04 0.04 0.04 0.05 0.07 0.08 0.04 0.02 0.02 0.03 0.03 0.03 0.03 0.03 0.03 0.03 0.03 0.02 0.02 0.02 0.03 0.03 0.02 0.01 0.01 0.02 0.03 0.03 0.03 0.03 0.02
0.03 0.04 0.03 0.01 0.01 0.00 0.01 0.01 0.00 0.00 0.01 0.01 0.02 0.02 0.02 0.02 0.03 0.06 0.06 0.04 0.02 0.02 0.02 0.03 0.03 0.04 0.04 0.04 0.04 0.03 0.02 0.02 0.03 0.03 0.02 0.01 0.02 0.02 0.03 0.03 0.03 0.02 0.01
MSLP
1013.69 1013.98 1014.28 1014.57 1014.85 1015.11 1015.36 1015.61 1015.88 1016.16 1016.47 1016.78 1017.09 1017.36 1017.59 1017.77 1017.89 1017.96 1018.02 1018.07 1018.14 1018.25 1018.41 1018.63 1018.88 1019.16 1019.46 1019.76 1020.06 1020.36 1020.65 1020.94 1021.22 1021.48 1021.72 1021.91 1022.05 1022.11 1022.10 1022.01 1021.87 1021.69 1021.49
1013.42 1013.76 1014.11 1014.43 1014.71 1014.95 1015.18 1015.42 1015.69 1016.01 1016.36 1016.75 1017.12 1017.46 1017.74 1017.93 1018.04 1018.09 1018.11 1018.13 1018.18 1018.28 1018.45 1018.68 1018.96 1019.25 1019.55 1019.83 1020.09 1020.34 1020.58 1020.83 1021.10 1021.37 1021.65 1021.92 1022.14 1022.31 1022.39 1022.39 1022.31 1022.18 1022.02
1012.89 1013.31 1013.73 1014.09 1014.40 1014.65 1014.88 1015.12 1015.41 1015.76 1016.16 1016.61 1017.05 1017.46 1017.78 1018.01 1018.13 1018.18 1018.18 1018.18 1018.22 1018.32 1018.49 1018.73 1019.02 1019.31 1019.60 1019.85 1020.07 1020.27 1020.46 1020.68 1020.92 1021.21 1021.52 1021.85 1022.15 1022.40 1022.57 1022.65 1022.64 1022.56 1022.43
1012.13 1012.63 1013.12 1013.55 1013.91 1014.20 1014.45 1014.71 1015.02 1015.40 1015.85 1016.35 1016.86 1017.32 1017.70 1017.97 1018.12 1018.18 1018.19 1018.20 1018.24 1018.34 1018.52 1018.77 1019.06 1019.35 1019.61 1019.84 1020.03 1020.18 1020.34 1020.52 1020.75 1021.05 1021.39 1021.75 1022.11 1022.43 1022.66 1022.80 1022.84 1022.80 1022.70
1011.21 1011.77 1012.33 1012.84 1013.27 1013.61 1013.90 1014.19 1014.53 1014.94 1015.43 1015.97 1016.53 1017.04 1017.47 1017.79 1017.98 1018.07 1018.11 1018.13 1018.19 1018.31 1018.51 1018.76 1019.05 1019.33 1019.59 1019.80 1019.96 1020.10 1020.23 1020.39 1020.61 1020.91 1021.26 1021.65 1022.04 1022.39 1022.66 1022.83 1022.91 1022.89 1022.83
1010.20 1010.81 1011.44 1012.02 1012.52 1012.92 1013.27 1013.60 1013.96 1014.40 1014.91 1015.48 1016.07 1016.62 1017.09 1017.45 1017.69 1017.82 1017.90 1017.95 1018.04 1018.18 1018.39 1018.65 1018.95 1019.24 1019.49 1019.70 1019.86 1019.99 1020.11 1020.27 1020.49 1020.78 1021.13 1021.52 1021.92 1022.28 1022.56 1022.75 1022.84 1022.85 1022.80
1009.20 1009.83 1010.51 1011.16 1011.72 1012.18 1012.58 1012.95 1013.34 1013.80 1014.33 1014.91 1015.51 1016.09 1016.58 1016.97 1017.25 1017.42 1017.53 1017.63 1017.74 1017.90 1018.13 1018.41 1018.72 1019.02 1019.29 1019.51 1019.68 1019.82 1019.96 1020.13 1020.34 1020.63 1020.97 1021.35 1021.73 1022.08 1022.36 1022.55 1022.65 1022.68 1022.66
1008.29 1008.91 1009.61 1010.30 1010.91 1011.43 1011.87 1012.28 1012.70 1013.17 1013.71 1014.29 1014.89 1015.47 1015.98 1016.38 1016.69 1016.89 1017.04 1017.16 1017.30 1017.49 1017.73 1018.03 1018.35 1018.67 1018.95 1019.20 1019.40 1019.57 1019.73 1019.91 1020.14 1020.42 1020.75 1021.11 1021.47 1021.80 1022.06 1022.25 1022.37 1022.42 1022.42
1007.51 1008.10 1008.79 1009.49 1010.13 1010.68 1011.17 1011.61 1012.05 1012.54 1013.07 1013.65 1014.24 1014.81 1015.32 1015.73 1016.04 1016.27 1016.44 1016.58 1016.75 1016.95 1017.21 1017.51 1017.85 1018.18 1018.49 1018.77 1019.00 1019.20 1019.40 1019.60 1019.84 1020.11 1020.43 1020.77 1021.11 1021.42 1021.68 1021.88 1022.01 1022.10 1022.15
1006.87 1007.41 1008.07 1008.75 1009.39 1009.96 1010.47 1010.94 1011.41 1011.91 1012.45 1013.02 1013.60 1014.15 1014.65 1015.06 1015.37 1015.61 1015.79 1015.95 1016.12 1016.34 1016.60 1016.91 1017.26 1017.60 1017.94 1018.24 1018.50 1018.74 1018.96 1019.19 1019.44 1019.71 1020.02 1020.34 1020.66 1020.96 1021.23 1021.44 1021.62 1021.75 1021.86
1006.35 1006.83 1007.43 1008.07 1008.69 1009.26 1009.79 1010.28 1010.77 1011.29 1011.84 1012.41 1012.98 1013.52 1014.00 1014.39 1014.71 1014.94 1015.13 1015.30 1015.49 1015.71 1015.97 1016.29 1016.63 1016.99 1017.33 1017.65 1017.94 1018.20 1018.44 1018.69 1018.94 1019.22 1019.51 1019.83 1020.14 1020.44 1020.72 1020.97 1021.19 1021.39 1021.57
1005.93 1006.33 1006.86 1007.44 1008.02 1008.58 1009.10 1009.61 1010.13 1010.67 1011.23 1011.81 1012.37 1012.90 1013.37 1013.76 1014.07 1014.31 1014.50 1014.68 1014.88 1015.10 1015.37 1015.68 1016.03 1016.38 1016.73 1017.05 1017.35 1017.62 1017.88 1018.13 1018.38 1018.66 1018.95 1019.25 1019.57 1019.88 1020.19 1020.48 1020.75 1021.01 1021.25
1005.56 1005.90 1006.35 1006.86 1007.38 1007.91 1008.42 1008.95 1009.48 1010.04 1010.62 1011.20 1011.77 1012.29 1012.76 1013.14 1013.45 1013.70 1013.91 1014.10 1014.30 1014.53 1014.81 1015.12 1015.46 1015.80 1016.14 1016.46 1016.75 1017.02 1017.28 1017.53 1017.78 1018.05 1018.34 1018.64 1018.96 1019.29 1019.62 1019.94 1020.26 1020.58 1020.88
1005.24 1005.51 1005.88 1006.32 1006.78 1007.26 1007.76 1008.28 1008.83 1009.40 1010.00 1010.59 1011.15 1011.68 1012.14 1012.52 1012.83 1013.09 1013.31 1013.52 1013.74 1013.99 1014.27 1014.58 1014.91 1015.24 1015.57 1015.87 1016.15 1016.41 1016.65 1016.89 1017.14 1017.40 1017.68 1017.99 1018.32 1018.66 1019.01 1019.36 1019.72 1020.07 1020.41
1004.95 1005.17 1005.47 1005.83 1006.23 1006.67 1007.14 1007.65 1008.20 1008.78 1009.37 1009.96 1010.52 1011.04 1011.49 1011.87 1012.19 1012.46 1012.70 1012.93 1013.17 1013.43 1013.71 1014.02 1014.34 1014.66 1014.97 1015.25 1015.51 1015.75 1015.98 1016.20 1016.44 1016.70 1016.99 1017.30 1017.63 1017.98 1018.34 1018.71 1019.08 1019.45 1019.81
1004.70 1004.88 1005.13 1005.42 1005.76 1006.16 1006.60 1007.09 1007.62 1008.19 1008.77 1009.34 1009.89 1010.38 1010.81 1011.19 1011.50 1011.78 1012.03 1012.28 1012.53 1012.81 1013.10 1013.41 1013.72 1014.02 1014.30 1014.56 1014.79 1015.01 1015.23 1015.45 1015.68 1015.95 1016.23 1016.55 1016.89 1017.24 1017.61 1017.98 1018.35 1018.71 1019.07
1004.49 1004.65 1004.85 1005.10 1005.40 1005.76 1006.17 1006.63 1007.14 1007.68 1008.23 1008.77 1009.28 1009.74 1010.14 1010.49 1010.79 1011.06 1011.31 1011.56 1011.83 1012.11 1012.40 1012.70 1012.99 1013.27 1013.53 1013.76 1013.98 1014.18 1014.39 1014.61 1014.85 1015.12 1015.42 1015.74 1016.09 1016.45 1016.82 1017.18 1017.54 1017.89 1018.23
1004.33 1004.48 1004.67 1004.90 1005.17 1005.50 1005.89 1006.32 1006.80 1007.30 1007.81 1008.29 1008.75 1009.15 1009.51 1009.81 1010.08 1010.33 1010.57 1010.81 1011.07 1011.34 1011.62 1011.90 1012.17 1012.42 1012.66 1012.87 1013.07 1013.26 1013.47 1013.69 1013.95 1014.23 1014.55 1014.89 1015.25 1015.61 1015.97 1016.33 1016.67 1017.00 1017.32
1004.21 1004.38 1004.57 1004.80 1005.08 1005.40 1005.77 1006.18 1006.62 1007.08 1007.53 1007.96 1008.34 1008.68 1008.98 1009.23 1009.46 1009.67 1009.87 1010.09 1010.32 1010.56 1010.81 1011.06 1011.29 1011.52 1011.73 1011.92 1012.10 1012.30 1012.50 1012.74 1013.01 1013.31 1013.65 1014.01 1014.38 1014.75 1015.11 1015.46 1015.79 1016.11 1016.41
1004.13 1004.33 1004.56 1004.82 1005.11 1005.45 1005.81 1006.21 1006.62 1007.03 1007.43 1007.79 1008.11 1008.38 1008.61 1008.80 1008.97 1009.13 1009.29 1009.47 1009.65 1009.85 1010.05 1010.25 1010.45 1010.64 1010.81 1010.98 1011.16 1011.34 1011.56 1011.80 1012.09 1012.41 1012.76 1013.14 1013.52 1013.90 1014.26 1014.61 1014.94 1015.25 1015.55
1004.13 1004.37 1004.65 1004.95 1005.28 1005.63 1006.01 1006.40 1006.79 1007.16 1007.50 1007.81 1008.06 1008.28 1008.44 1008.58 1008.69 1008.80 1008.90 1009.02 1009.15 1009.29 1009.43 1009.58 1009.72 1009.86 1010.00 1010.15 1010.30 1010.48 1010.69 1010.95 1011.24 1011.57 1011.93 1012.31 1012.69 1013.07 1013.44 1013.79 1014.12 1014.44 1014.75
1004.23 1004.52 1004.85 1005.20 1005.57 1005.95 1006.34 1006.72 1007.09 1007.43 1007.74 1008.00 1008.21 1008.37 1008.49 1008.57 1008.64 1008.69 1008.75 1008.81 1008.87 1008.95 1009.02 1009.11 1009.19 1009.28 1009.37 1009.48 1009.61 1009.77 1009.97 1010.22 1010.50 1010.82 1011.17 1011.53 1011.91 1012.28 1012.65 1013.00 1013.34 1013.67 1014.00
1004.48 1004.82 1005.19 1005.58 1005.98 1006.39 1006.78 1007.16 1007.51 1007.83 1008.10 1008.33 1008.50 1008.63 1008.73 1008.78 1008.81 1008.83 1008.84 1008.84 1008.85 1008.85 1008.86 1008.88 1008.89 1008.92 1008.96 1009.03 1009.12 1009.25 1009.42 1009.63 1009.88 1010.17 1010.49 1010.82 1011.17 1011.52 1011.87 1012.21 1012.56 1012.91 1013.27
1004.93 1005.30 1005.70 1006.11 1006.52 1006.93 1007.32 1007.68 1008.01 1008.30 1008.55 1008.75 1008.92 1009.03 1009.11 1009.16 1009.17 1009.17 1009.14 1009.10 1009.05 1009.00 1008.94 1008.88 1008.83 1008.79 1008.77 1008.78 1008.82 1008.90 1009.02 1009.18 1009.38 1009.62 1009.88 1010.16 1010.46 1010.77 1011.09 1011.42 1011.77 1012.13 1012.51
1005.61 1005.98 1006.38 1006.78 1007.18 1007.56 1007.92 1008.25 1008.54 1008.80 1009.03 1009.23 1009.39 1009.51 1009.59 1009.65 1009.66 1009.65 1009.60 1009.53 1009.43 1009.32 1009.19 1009.07 1008.94 1008.83 1008.74 1008.69 1008.67 1008.68 1008.74 1008.83 1008.96 1009.12 1009.31 1009.52 1009.75 1010.01 1010.29 1010.60 1010.94 1011.30 1011.70
1006.49 1006.84 1007.21 1007.57 1007.92 1008.25 1008.55 1008.83 1009.08 1009.30 1009.51 1009.70 1009.86 1009.99 1010.10 1010.17 1010.20 1010.19 1010.14 1010.05 1009.91 1009.75 1009.56 1009.36 1009.17 1008.98 1008.82 1008.69 1008.59 1008.53 1008.51 1008.52 1008.57 1008.65 1008.75 1008.88 1009.05 1009.24 1009.48 1009.75 1010.07 1010.44 1010.84
Thickness
5764 5763 5762 5761 5757 5753 5749 5745 5741 5738 5734 5730 5726 5722 5719 5718 5717 5716 5715 5714 5713 5712 5710 5709 5706 5704 5702 5700 5698 5695 5693 5691 5690 5688 5687 5688 5690 5690 5691 5691 5692 5693 5693
5757 5758 5758 5756 5753 5750 5746 5743 5740 5736 5734 5730 5726 5722 5718 5716 5715 5713 5712 5710 5709 5708 5708 5706 5704 5702 5699 5696 5694 5692 5689 5687 5686 5684 5680 5678 5680 5683 5686 5686 5687 5688 5688
5755 5754 5754 5752 5750 5747 5744 5742 5738 5735 5732 5728 5723 5719 5714 5712 5709 5709 5708 5707 5706 5706 5705 5703 5701 5699 5697 5694 5692 5690 5687 5683 5682 5681 5678 5674 5673 5675 5679 5681 5682 5682 5683
5754 5752 5751 5748 5747 5746 5743 5739 5735 5732 5729 5725 5720 5716 5711 5707 5706 5705 5704 5704 5703 5703 5702 5701 5698 5696 5694 5692 5690 5688 5685 5682 5679 5677 5676 5675 5674 5671 5671 5675 5676 5677 5678
5753 5751 5749 5746 5745 5743 5739 5735 5732 5728 5725 5722 5718 5713 5709 5706 5704 5702 5701 5700 5700 5699 5699 5698 5696 5693 5691 5689 5687 5685 5683 5681 5678 5676 5674 5671 5669 5669 5667 5667 5670 5672 5674
5750 5749 5747 5743 5740 5738 5735 5730 5727 5723 5720 5716 5712 5710 5706 5703 5700 5698 5697 5696 5696 5696 5695 5694 5693 5691 5689 5687 5685 5684 5682 5680 5677 5675 5673 5671 5669 5667 5665 5664 5665 5666 5669
5745 5743 5740 5738 5735 5733 5731 5726 5723 5718 5715 5711 5708 5706 5704 5700 5698 5697 5695 5693 5692 5692 5692 5691 5690 5688 5687 5685 5683 5681 5679 5677 5675 5672 5671 5670 5669 5668 5665 5662 5661 5661 5664
5741 5739 5737 5735 5732 5730 5727 5723 5720 5715 5712 5708 5706 5703 5700 5698 5696 5695 5694 5692 5691 5691 5690 5689 5688 5686 5685 5683 5680 5678 5676 5674 5672 5670 5669 5668 5667 5666 5664 5662 5659 5657 5658
5736 5734 5732 5731 5729 5726 5723 5720 5717 5713 5710 5706 5703 5701 5699 5696 5694 5693 5692 5691 5690 5689 5688 5687 5685 5684 5682 5680 5678 5675 5673 5671 5669 5668 5666 5665 5664 5663 5662 5661 5659 5656 5654
5730 5729 5727 5726 5724 5722 5719 5716 5713 5710 5707 5704 5701 5700 5698 5696 5693 5691 5690 5688 5687 5687 5685 5684 5682 5681 5679 5677 5675 5673 5670 5668 5666 5665 5663 5662 5661 5660 5659 5658 5657 5656 5654
5724 5723 5722 5721 5719 5717 5714 5711 5709 5706 5703 5701 5698 5696 5695 5693 5690 5689 5688 5686 5685 5684 5682 5681 5679 5678 5676 5673 5671 5670 5668 5666 5664 5662 5660 5659 5658 5656 5656 5655 5654 5653 5651
5718 5717 5716 5715 5713 5711 5708 5706 5704 5702 5700 5698 5696 5694 5692 5690 5687 5686 5685 5684 5682 5681 5679 5678 5676 5674 5673 5671 5668 5666 5665 5663 5661 5659 5657 5656 5655 5653 5652 5652 5651 5650 5648
5710 5709 5708 5707 5706 5704 5703 5701 5699 5697 5696 5694 5692 5690 5688 5686 5684 5683 5683 5681 5679 5678 5676 5675 5673 5672 5670 5668 5666 5664 5662 5661 5659 5657 5655 5654 5652 5650 5649 5648 5647 5646 5645
5702 5701 5700 5699 5699 5698 5697 5696 5694 5693 5691 5690 5688 5686 5685 5684 5682 5681 5680 5678 5676 5675 5673 5672 5670 5669 5667 5665 5663 5661 5659 5658 5656 5654 5653 5651 5649 5647 5646 5645 5643 5642 5640
5695 5694 5694 5693 5692 5692 5691 5690 5689 5688 5687 5685 5684 5683 5682 5681 5680 5678 5677 5675 5673 5672 5670 5668 5667 5665 5664 5662 5660 5658 5656 5653 5652 5650 5649 5648 5646 5645 5643 5642 5640 5638 5636
5688 5688 5688 5687 5685 5685 5685 5684 5683 5683 5682 5681 5681 5680 5678 5677 5675 5674 5673 5672 5670 5668 5666 5664 5663 5661 5660 5659 5656 5654 5652 5649 5647 5646 5645 5644 5642 5641 5640 5639 5637 5636 5633
5682 5683 5683 5681 5680 5680 5679 5678 5678 5678 5677 5677 5676 5674 5673 5672 5671 5670 5668 5667 5666 5664 5662 5660 5658 5657 5656 5655 5652 5650 5648 5645 5643 5642 5640 5640 5639 5637 5636 5634 5633 5632 5631
5678 5677 5676 5675 5674 5674 5673 5673 5673 5672 5672 5671 5671 5670 5668 5667 5666 5665 5663 5662 5661 5659 5657 5656 5654 5653 5652 5650 5648 5645 5643 5641 5639 5638 5636 5635 5634 5633 5631 5629 5628 5626 5626
5674 5673 5672 5670 5669 5668 5667 5666 5666 5666 5666 5666 5665 5665 5664 5662 5661 5660 5659 5657 5656 5654 5652 5651 5650 5648 5647 5645 5643 5640 5638 5636 5635 5634 5633 5631 5630 5629 5626 5624 5622 5621 5621
5670 5668 5667 5665 5663 5662 5662 5661 5659 5659 5660 5661 5661 5660 5659 5658 5657 5657 5655 5653 5651 5650 5648 5646 5645 5643 5642 5641 5638 5636 5634 5632 5631 5629 5628 5626 5625 5623 5621 5619 5617 5616 5616
5663 5663 5661 5659 5658 5657 5656 5655 5654 5654 5655 5655 5655 5656 5656 5656 5654 5652 5651 5650 5647 5645 5644 5642 5640 5639 5638 5636 5634 5632 5630 5629 5627 5625 5623 5622 5620 5618 5616 5614 5614 5613 5611
5656 5656 5654 5652 5651 5651 5650 5649 5648 5650 5650 5650 5650 5650 5651 5652 5651 5648 5646 5645 5643 5640 5639 5637 5635 5634 5633 5631 5629 5627 5626 5625 5623 5621 5620 5618 5615 5614 5612 5610 5609 5607 5605
5649 5649 5648 5646 5645 5644 5644 5643 5644 5645 5645 5644 5644 5644 5645 5645 5644 5643 5641 5639 5637 5635 5634 5632 5631 5630 5629 5627 5625 5623 5622 5620 5619 5618 5616 5613 5611 5609 5607 5606 5604 5602 5600
5641 5640 5640 5639 5638 5638 5638 5638 5640 5640 5640 5638 5638 5638 5638 5637 5637 5636 5635 5633 5631 5631 5629 5627 5626 5625 5623 5622 5620 5618 5617 5615 5613 5612 5610 5608 5606 5604 5603 5601 5599 5597 5594
5633 5633 5633 5633 5633 5633 5633 5633 5633 5633 5632 5632 5632 5632 5631 5630 5629 5629 5628 5627 5627 5626 5623 5623 5621 5619 5618 5618 5615 5613 5612 5611 5609 5606 5604 5602 5600 5599 5598 5596 5594 5592 5589
5626 5626 5626 5628 5628 5628 5627 5627 5628 5628 5627 5626 5626 5625 5625 5624 5623 5623 5622 5622 5621 5620 5618 5617 5615 5614 5612 5611 5609 5607 5605 5603 5602 5600 5598 5596 5595 5593 5592 5591 5589 5587 5585